1273622427268,0.000133818
1273622487268,0.000134810
1273622547268,0.000135361
1273622607268,0.000135457
1273622667268,0.000134778
1273622727268,0.000135314
1273622787268,0.000134111
1273622847268,0.000135992
1273622907268,0.000134320
1273622967268,0.000134833
1273623027268,0.000135376
1273623087268,0.000134977
1273623147268,0.000135858
1273623207268,0.000134349
1273623267268,0.000134953
1273623327268,0.000133328
1273623387268,0.000134139
1273623447268,0.000133806
1273623507268,0.000133657
1273623567268,0.000134522
1273623627268,0.000134110
1273623687268,0.000134190
1273623747268,0.000133894
1273623807268,0.000133792
1273623867268,0.000134373
1273623927268,0.000134571
1273623987268,0.000134186
1273624047268,0.000133776
1273624107268,0.000132813
1273624167268,0.000133642
1273624227268,0.000134216
1273624287268,0.000133680
1273624347268,0.000133757
1273624407268,0.000134067
1273624467268,0.000133964
1273624527268,0.000133224
1273624587268,0.000134884
1273624647268,0.000133897
1273624707268,0.000133554
1273624767268,0.000134170
1273624827268,0.000133120
1273624887268,0.000134144
1273624947268,0.000134120
1273625007268,0.000133791
1273625067268,0.000133195
1273625127268,0.000133957
1273625187268,0.000133852
1273625247268,0.000134138
1273625307268,0.000134230
1273625367268,0.000133930
1273625427268,0.000134507
1273625487268,0.000134377
1273625547268,0.000133668
1273625607268,0.000133696
1273625667268,0.000133905
1273625727268,0.000134118
1273625787268,0.000134444
1273625847268,0.000133746
1273625907268,0.000134459
1273625967268,0.000134734
1273626027276,0.000133830
1273626087276,0.000134398
1273626147276,0.000133861
1273626207276,0.000132786
1273626267276,0.000134392
1273626327276,0.000134023
1273626387276,0.000135413
1273626447276,0.000134134
1273626507276,0.000135826
1273626567276,0.000134191
1273626627276,0.000133890
1273626687276,0.000134595
1273626747276,0.000133535
1273626807276,0.000134633
1273626867276,0.000134544
1273626927276,0.000134645
1273626987276,0.000134097
1273627047276,0.000134020
1273627107276,0.000133830
1273627167276,0.000134303
1273627227276,0.000134698
1273627287276,0.000135035
1273627347276,0.000133902
1273627407276,0.000133506
1273627467276,0.000132760
1273627527276,0.000134185
1273627587276,0.000133947
1273627647276,0.000134121
1273627707276,0.000133918
1273627767276,0.000133497
1273627827276,0.000133274
1273627887276,0.000134447
1273627947276,0.000132696
1273628007276,0.000134428
1273628067276,0.000133823
1273628127276,0.000132968
1273628187276,0.000133872
1273628247276,0.000135219
1273628307276,0.000133943
1273628367276,0.000133934
1273628427276,0.000133242
1273628487276,0.000133888
1273628547276,0.000134074
1273628607276,0.000134026
1273628667276,0.000133805
1273628727276,0.000133826
1273628787276,0.000133715
1273628847276,0.000135175
1273628907276,0.000134041
1273628967276,0.000133911
1273629027276,0.000133964
1273629087276,0.000134003
1273629147276,0.000133830
1273629207276,0.000136055
1273629267276,0.000133600
1273629327276,0.000134102
1273629387276,0.000133982
1273629447276,0.000135020
1273629507276,0.000134744
1273629567276,0.000133573
1273629627284,0.000133875
1273629687284,0.000134283
1273629747284,0.000133906
1273629807284,0.000134785
1273629867284,0.000135950
1273629927284,0.000134886
1273629987284,0.000135547
1273630047284,0.000136013
1273630107284,0.000136178
1273630167284,0.000135445
1273630227284,0.000136236
1273630287284,0.000136253
1273630347284,0.000136228
1273630407284,0.000136509
1273630467284,0.000134388
1273630527284,0.000136010
1273630587284,0.000134998
1273630647284,0.000135130
1273630707284,0.000135083
1273630767284,0.000133968
1273630827284,0.000133862
1273630887284,0.000134728
1273630947284,0.000134243
1273631007284,0.000134797
1273631067284,0.000133403
1273631127284,0.000135029
1273631187284,0.000133821
1273631247284,0.000133644
1273631307284,0.000135005
1273631367284,0.000135016
1273631427284,0.000134371
1273631487284,0.000133819
1273631547284,0.000134540
1273631607284,0.000135686
1273631667284,0.000134112
1273631727284,0.000134691
1273631787284,0.000133145
1273631847284,0.000134248
1273631907284,0.000134534
1273631967284,0.000135071
1273632027284,0.000133938
1273632087284,0.000135009
1273632147284,0.000134352
1273632207284,0.000134374
1273632267284,0.000133579
1273632327284,0.000134355
1273632387284,0.000134284
1273632447284,0.000134946
1273632507284,0.000134759
1273632567284,0.000134912
1273632627284,0.000135193
1273632687284,0.000133977
1273632747284,0.000135027
1273632807284,0.000133555
1273632867284,0.000134737
1273632927284,0.000134737
1273632987284,0.000134869
1273633047284,0.000135186
1273633107284,0.000135199
1273633167284,0.000134510
1273633227292,0.000134160
1273633287292,0.000133876
1273633347292,0.000133490
1273633407292,0.000135057
1273633467292,0.000133730
1273633527292,0.000134892
1273633587292,0.000133760
1273633647292,0.000134168
1273633707292,0.000134232
1273633767292,0.000133354
1273633827292,0.000134187
1273633887292,0.000134196
1273633947292,0.000134774
1273634007292,0.000133914
1273634067292,0.000132664
1273634127292,0.000133325
1273634187292,0.000132397
1273634247292,0.000133410
1273634307292,0.000134035
1273634367292,0.000134031
1273634427292,0.000134313
1273634487292,0.000134263
1273634547292,0.000135057
1273634607292,0.000134915
1273634667292,0.000133001
1273634727292,0.000134709
1273634787292,0.000134278
1273634847292,0.000134224
1273634907292,0.000134516
1273634967292,0.000132966
1273635027292,0.000133149
1273635087292,0.000133613
1273635147292,0.000134622
1273635207292,0.000133812
1273635267292,0.000134208
1273635327292,0.000134101
1273635387292,0.000134367
1273635447292,0.000133869
1273635507292,0.000135134
1273635567292,0.000134385
1273635627292,0.000134020
1273635687292,0.000133376
1273635747292,0.000133779
1273635807292,0.000133658
1273635867292,0.000134299
1273635927292,0.000134088
1273635987292,0.000134693
1273636047292,0.000135091
1273636107292,0.000134336
1273636167292,0.000133254
1273636227292,0.000134492
1273636287292,0.000133940
1273636347292,0.000134405
1273636407292,0.000134882
1273636467292,0.000134511
1273636527292,0.000134210
1273636587292,0.000134733
1273636647292,0.000134284
1273636707292,0.000133457
1273636767292,0.000133903
1273636827300,0.000134406
1273636887300,0.000134188
1273636947300,0.000134152
1273637007300,0.000133888
1273637067300,0.000134729
1273637127300,0.000135026
1273637187300,0.000134724
1273637247300,0.000134582
1273637307300,0.000135912
1273637367300,0.000135325
1273637427300,0.000134622
1273637487300,0.000133176
1273637547300,0.000134020
1273637607300,0.000134759
1273637667300,0.000133930
1273637727300,0.000134806
1273637787300,0.000135565
1273637847300,0.000134178
1273637907300,0.000134006
1273637967300,0.000134726
1273638027300,0.000134262
1273638087300,0.000133617
1273638147300,0.000134249
1273638207300,0.000133540
1273638267300,0.000134515
1273638327300,0.000134982
1273638387300,0.000133907
1273638447300,0.000134591
1273638507300,0.000134427
1273638567300,0.000134060
1273638627300,0.000133158
1273638687300,0.000133807
1273638747300,0.000134805
1273638807300,0.000134073
1273638867300,0.000134797
1273638927300,0.000133698
1273638987300,0.000135128
1273639047300,0.000133820
1273639107300,0.000133715
1273639167300,0.000134520
1273639227300,0.000134178
1273639287300,0.000134470
1273639347300,0.000135387
1273639407300,0.000133326
1273639467300,0.000133762
1273639527300,0.000135088
1273639587300,0.000133583
1273639647300,0.000133641
1273639707300,0.000135318
1273639767300,0.000133321
1273639827300,0.000134435
1273639887300,0.000133049
1273639947300,0.000132837
1273640007300,0.000133901
1273640067300,0.000133127
1273640127300,0.000133404
1273640187300,0.000133051
1273640247300,0.000133359
1273640307300,0.000133890
1273640367300,0.000133849
1273640427308,0.000133205
1273640487308,0.000134929
1273640547308,0.000133345
1273640607308,0.000133986
1273640667308,0.000133213
1273640727308,0.000133723
1273640787308,0.000133249
1273640847308,0.000133677
1273640907308,0.000133478
1273640967308,0.000133517
1273641027308,0.000133304
1273641087308,0.000133494
1273641147308,0.000133348
1273641207308,0.000134354
1273641267308,0.000133827
1273641327308,0.000133182
1273641387308,0.000133316
1273641447308,0.000133515
1273641507308,0.000133498
1273641567308,0.000133538
1273641627308,0.000134022
1273641687308,0.000134545
1273641747308,0.000133065
1273641807308,0.000134367
1273641867308,0.000133673
1273641927308,0.000134026
1273641987308,0.000133446
1273642047308,0.000133709
1273642107308,0.000132630
1273642167308,0.000133261
1273642227308,0.000133972
1273642287308,0.000133937
1273642347308,0.000133811
1273642407308,0.000134256
1273642467308,0.000134367
1273642527308,0.000133076
1273642587308,0.000133050
1273642647308,0.000132183
1273642707308,0.000132679
1273642767308,0.000134923
1273642827308,0.000132802
1273642887308,0.000133292
1273642947308,0.000132973
1273643007308,0.000133645
1273643067308,0.000133635
1273643127308,0.000133430
1273643187308,0.000133973
1273643247308,0.000131710
1273643307308,0.000133374
1273643367308,0.000133566
1273643427308,0.000133611
1273643487308,0.000133413
1273643547308,0.000134072
1273643607308,0.000134098
1273643667308,0.000132285
1273643727308,0.000132446
1273643787308,0.000133977
1273643847308,0.000132647
1273643907308,0.000133914
1273643967308,0.000132763
1273644027316,0.000132518
1273644087316,0.000132225
1273644147316,0.000133210
1273644207316,0.000133596
1273644267316,0.000133551
1273644327316,0.000131813
1273644387316,0.000132102
1273644447316,0.000132921
1273644507316,0.000132713
1273644567316,0.000133174
1273644627316,0.000134048
1273644687316,0.000133168
1273644747316,0.000132172
1273644807316,0.000133944
1273644867316,0.000133352
1273644927316,0.000133489
1273644987316,0.000133168
1273645047316,0.000132794
1273645107316,0.000133348
1273645167316,0.000133219
1273645227316,0.000132408
1273645287316,0.000132808
1273645347316,0.000132501
1273645407316,0.000133648
1273645467316,0.000133628
1273645527316,0.000133079
1273645587316,0.000132700
1273645647316,0.000132331
1273645707316,0.000133104
1273645767316,0.000133522
1273645827316,0.000133235
1273645887316,0.000133829
1273645947316,0.000132371
1273646007316,0.000133218
1273646067316,0.000132984
1273646127316,0.000132570
1273646187316,0.000132420
1273646247316,0.000132329
1273646307316,0.000132870
1273646367316,0.000134114
1273646427316,0.000132164
1273646487316,0.000134050
1273646547316,0.000133237
1273646607316,0.000133090
1273646667316,0.000133119
1273646727316,0.000134284
1273646787316,0.000132450
1273646847316,0.000133206
1273646907316,0.000133212
1273646967316,0.000133136
1273647027316,0.000132454
1273647087316,0.000132830
1273647147316,0.000132792
1273647207316,0.000132721
1273647267316,0.000132712
1273647327316,0.000132864
1273647387316,0.000132116
1273647447316,0.000132466
1273647507316,0.000132757
1273647567316,0.000132510
1273647627325,0.000133094
1273647687325,0.000132968
1273647747325,0.000132303
1273647807325,0.000133189
1273647867325,0.000132866
1273647927325,0.000133256
1273647987325,0.000132616
1273648047325,0.000131994
1273648107325,0.000134091
1273648167325,0.000133494
1273648227325,0.000133375
1273648287325,0.000132716
1273648347325,0.000134179
1273648407325,0.000132802
1273648467325,0.000132063
1273648527325,0.000132598
1273648587325,0.000132036
1273648647325,0.000133079
1273648707325,0.000133397
1273648767325,0.000133518
1273648827325,0.000133236
1273648887325,0.000133135
1273648947325,0.000132396
1273649007325,0.000133624
1273649067325,0.000134007
1273649127325,0.000132606
1273649187325,0.000134106
1273649247325,0.000133064
1273649307325,0.000132456
1273649367325,0.000132542
1273649427325,0.000133524
1273649487325,0.000132968
1273649547325,0.000132791
1273649607325,0.000132416
1273649667325,0.000132119
1273649727325,0.000132577
1273649787325,0.000132762
1273649847325,0.000132233
1273649907325,0.000133018
1273649967325,0.000134279
1273650027325,0.000133100
1273650087325,0.000133067
1273650147325,0.000132692
1273650207325,0.000132457
1273650267325,0.000132278
1273650327325,0.000132611
1273650387325,0.000132510
1273650447325,0.000132717
1273650507325,0.000132877
1273650567325,0.000133032
1273650627325,0.000133030
1273650687325,0.000133500
1273650747325,0.000133063
1273650807325,0.000131689
1273650867325,0.000132970
1273650927325,0.000131984
1273650987325,0.000132303
1273651047325,0.000133203
1273651107325,0.000133944
1273651167325,0.000133669
1273651227333,0.000132605
1273651287333,0.000133135
1273651347333,0.000132902
1273651407333,0.000132646
1273651467333,0.000132703
1273651527333,0.000133610
1273651587333,0.000133513
1273651647333,0.000133048
1273651707333,0.000134740
1273651767333,0.000133443
1273651827333,0.000133661
1273651887333,0.000133597
1273651947333,0.000133830
1273652007333,0.000133677
1273652067333,0.000134622
1273652127333,0.000133791
1273652187333,0.000133915
1273652247333,0.000133826
1273652307333,0.000133951
1273652367333,0.000133382
1273652427333,0.000132874
1273652487333,0.000132384
1273652547333,0.000134162
1273652607333,0.000132661
1273652667333,0.000133378
1273652727333,0.000133146
1273652787333,0.000133131
1273652847333,0.000132917
1273652907333,0.000132503
1273652967333,0.000132751
1273653027333,0.000131784
1273653087333,0.000132503
1273653147333,0.000131526
1273653207333,0.000131762
1273653267333,0.000131142
1273653327333,0.000133317
1273653387333,0.000131847
1273653447333,0.000131596
1273653507333,0.000132555
1273653567333,0.000132676
1273653627333,0.000132567
1273653687333,0.000133367
1273653747333,0.000133542
1273653807333,0.000133411
1273653867333,0.000133252
1273653927333,0.000133170
1273653987333,0.000131926
1273654047333,0.000131914
1273654107333,0.000132891
1273654167333,0.000133116
1273654227333,0.000131402
1273654287333,0.000132982
1273654347333,0.000132982
1273654407333,0.000132288
1273654467333,0.000132510
1273654527333,0.000132825
1273654587333,0.000132742
1273654647333,0.000131840
1273654707333,0.000132327
1273654767333,0.000133081
1273654827341,0.000133066
1273654887341,0.000133220
1273654947341,0.000132775
1273655007341,0.000133433
1273655067341,0.000132683
1273655127341,0.000132169
1273655187341,0.000133099
1273655247341,0.000132935
1273655307341,0.000132299
1273655367341,0.000132710
1273655427341,0.000132591
1273655487341,0.000131861
1273655547341,0.000133485
1273655607341,0.000132298
1273655667341,0.000133303
1273655727341,0.000132095
1273655787341,0.000133152
1273655847341,0.000132177
1273655907341,0.000133346
1273655967341,0.000132220
1273656027341,0.000131857
1273656087341,0.000132109
1273656147341,0.000132812
1273656207341,0.000130967
1273656267341,0.000132812
1273656327341,0.000132220
1273656387341,0.000131273
1273656447341,0.000131954
1273656507341,0.000132530
1273656567341,0.000132339
1273656627341,0.000130823
1273656687341,0.000130431
1273656747341,0.000130601
1273656807341,0.000131907
1273656867341,0.000131673
1273656927341,0.000131428
1273656987341,0.000131847
1273657047341,0.000132039
1273657107341,0.000131869
1273657167341,0.000132196
1273657227341,0.000132366
1273657287341,0.000131267
1273657347341,0.000132036
1273657407341,0.000131134
1273657467341,0.000131099
1273657527341,0.000131970
1273657587341,0.000131235
1273657647341,0.000131402
1273657707341,0.000131657
1273657767341,0.000130908
1273657827341,0.000131418
1273657887341,0.000132197
1273657947341,0.000131120
1273658007341,0.000131429
1273658067341,0.000131824
1273658127341,0.000132186
1273658187341,0.000132076
1273658247341,0.000131814
1273658307341,0.000132189
1273658367341,0.000132491
1273658427350,0.000131474
1273658487350,0.000132192
1273658547350,0.000131800
1273658607350,0.000131362
1273658667350,0.000132212
1273658727350,0.000132104
1273658787350,0.000132411
1273658847350,0.000132162
1273658907350,0.000133715
1273658967350,0.000132060
1273659027350,0.000132670
1273659087350,0.000132343
1273659147350,0.000133046
1273659207350,0.000132010
1273659267350,0.000131501
1273659327350,0.000131492
1273659387350,0.000131722
1273659447350,0.000132438
1273659507350,0.000131651
1273659567350,0.000131362
1273659627350,0.000130992
1273659687350,0.000131670
1273659747350,0.000131414
1273659807350,0.000131514
1273659867350,0.000131613
1273659927350,0.000132379
1273659987350,0.000131848
1273660047350,0.000131625
1273660107350,0.000131620
1273660167350,0.000131780
1273660227350,0.000132497
1273660287350,0.000131179
1273660347350,0.000133310
1273660407350,0.000131345
1273660467350,0.000132049
1273660527350,0.000130498
1273660587350,0.000130627
1273660647350,0.000130483
1273660707350,0.000131563
1273660767350,0.000131754
1273660827350,0.000131812
1273660887350,0.000131684
1273660947350,0.000131654
1273661007350,0.000131253
1273661067350,0.000131306
1273661127350,0.000131111
1273661187350,0.000130821
1273661247350,0.000131124
1273661307350,0.000131152
1273661367350,0.000131456
1273661427350,0.000130438
1273661487350,0.000131840
1273661547350,0.000131322
1273661607350,0.000132294
1273661667350,0.000130492
1273661727350,0.000131601
1273661787350,0.000131297
1273661847350,0.000131379
1273661907350,0.000131618
1273661967350,0.000130939
1273662027358,0.000131137
1273662087358,0.000131038
1273662147358,0.000130650
1273662207358,0.000130656
1273662267358,0.000131478
1273662327358,0.000131889
1273662387358,0.000131788
1273662447358,0.000130528
1273662507358,0.000131060
1273662567358,0.000130657
1273662627358,0.000130504
1273662687358,0.000131092
1273662747358,0.000131658
1273662807358,0.000131004
1273662867358,0.000131433
1273662927358,0.000131301
1273662987358,0.000131110
1273663047358,0.000131278
1273663107358,0.000131723
1273663167358,0.000131710
1273663227358,0.000131186
1273663287358,0.000131695
1273663347358,0.000131463
1273663407358,0.000141115
1273663467358,0.000130306
1273663527358,0.000130980
1273663587358,0.000130549
1273663647358,0.000130733
1273663707358,0.000130861
1273663767358,0.000131000
1273663827358,0.000132122
1273663887358,0.000131405
1273663947358,0.000130426
1273664007358,0.000131459
1273664067358,0.000130466
1273664127358,0.000131152
1273664187358,0.000130127
1273664247358,0.000132010
1273664307358,0.000131403
1273664367358,0.000130954
1273664427358,0.000131529
1273664487358,0.000129915
1273664547358,0.000131488
1273664607358,0.000131651
1273664667358,0.000130723
1273664727358,0.000130508
1273664787358,0.000131694
1273664847358,0.000131311
1273664907358,0.000131620
1273664967358,0.000131427
1273665027358,0.000130812
1273665087358,0.000130291
1273665147358,0.000131174
1273665207358,0.000130959
1273665267358,0.000131366
1273665327358,0.000130901
1273665387358,0.000131254
1273665447358,0.000131544
1273665507358,0.000131454
1273665567358,0.000130429
1273665627367,0.000130519
1273665687367,0.000130964
1273665747367,0.000132715
1273665807367,0.000131184
1273665867367,0.000131341
1273665927367,0.000131867
1273665987367,0.000130663
1273666047367,0.000130870
1273666107367,0.000131466
1273666167367,0.000131450
1273666227367,0.000131969
1273666287367,0.000131818
1273666347367,0.000132152
1273666407367,0.000131635
1273666467367,0.000131886
1273666527367,0.000131535
1273666587367,0.000131178
1273666647367,0.000132142
1273666707367,0.000132047
1273666767367,0.000131009
1273666827367,0.000132558
1273666887367,0.000131565
1273666947367,0.000131637
1273667007367,0.000130753
1273667067367,0.000130843
1273667127367,0.000131266
1273667187367,0.000132800
1273667247367,0.000132620
1273667307367,0.000131925
1273667367367,0.000131581
1273667427367,0.000131280
1273667487367,0.000130157
1273667547367,0.000132191
1273667607367,0.000130971
1273667667367,0.000131268
1273667727367,0.000130620
1273667787367,0.000131378
1273667847367,0.000131152
1273667907367,0.000131249
1273667967367,0.000130469
1273668027367,0.000130691
1273668087367,0.000131296
1273668147367,0.000130468
1273668207367,0.000131542
1273668267367,0.000132446
1273668327367,0.000131147
1273668387367,0.000130805
1273668447367,0.000131095
1273668507367,0.000130993
1273668567367,0.000130900
1273668627367,0.000130593
1273668687367,0.000130636
1273668747367,0.000131315
1273668807367,0.000131025
1273668867367,0.000130948
1273668927367,0.000130851
1273668987367,0.000129959
1273669047367,0.000130007
1273669107367,0.000130587
1273669167367,0.000129792
1273669227375,0.000130809
1273669287375,0.000131421
1273669347375,0.000130454
1273669407375,0.000130705
1273669467375,0.000131089
1273669527375,0.000130450
1273669587375,0.000129440
1273669647375,0.000129761
1273669707375,0.000130796
1273669767375,0.000129991
1273669827375,0.000130748
1273669887375,0.000130760
1273669947375,0.000131138
1273670007375,0.000130645
1273670067375,0.000132751
1273670127375,0.000132141
1273670187375,0.000131461
1273670247375,0.000132289
1273670307375,0.000131167
1273670367375,0.000131850
1273670427375,0.000131606
1273670487375,0.000131782
1273670547375,0.000131706
1273670607375,0.000132407
1273670667375,0.000130798
1273670727375,0.000131150
1273670787375,0.000131562
1273670847375,0.000131410
1273670907375,0.000131760
1273670967375,0.000130981
1273671027375,0.000131974
1273671087375,0.000132571
1273671147375,0.000132463
1273671207375,0.000131982
1273671267375,0.000131377
1273671327375,0.000130774
1273671387375,0.000131129
1273671447375,0.000130721
1273671507375,0.000130538
1273671567375,0.000132003
1273671627375,0.000131296
1273671687375,0.000132318
1273671747375,0.000132889
1273671807375,0.000131940
1273671867375,0.000132590
1273671927375,0.000132253
1273671987375,0.000131710
1273672047375,0.000132181
1273672107375,0.000131871
1273672167375,0.000132974
1273672227375,0.000131441
1273672287375,0.000135545
1273672347375,0.000131478
1273672407375,0.000132609
1273672467375,0.000132445
1273672527375,0.000132609
1273672587375,0.000132464
1273672647375,0.000133335
1273672707375,0.000133192
1273672767375,0.000132208
1273672827383,0.000132507
1273672887383,0.000132140
1273672947383,0.000132756
1273673007383,0.000132845
1273673067383,0.000132274
1273673127383,0.000133080
1273673187383,0.000132639
1273673247383,0.000132821
1273673307383,0.000132359
1273673367383,0.000132441
1273673427383,0.000132018
1273673487383,0.000131430
1273673547383,0.000131805
1273673607383,0.000131523
1273673667383,0.000132984
1273673727383,0.000132264
1273673787383,0.000132171
1273673847383,0.000132695
1273673907383,0.000131984
1273673967383,0.000133355
1273674027383,0.000131771
1273674087383,0.000132364
1273674147383,0.000132220
1273674207383,0.000132314
1273674267383,0.000131395
1273674327383,0.000132688
1273674387383,0.000132339
1273674447383,0.000131951
1273674507383,0.000132317
1273674567383,0.000132846
1273674627383,0.000131863
1273674687383,0.000132955
1273674747383,0.000132141
1273674807383,0.000133196
1273674867383,0.000131654
1273674927383,0.000132479
1273674987383,0.000130981
1273675047383,0.000131713
1273675107383,0.000139113
1273675167383,0.000131490
1273675227383,0.000131808
1273675287383,0.000132745
1273675347383,0.000132122
1273675407383,0.000132426
1273675467383,0.000131502
1273675527383,0.000130857
1273675587383,0.000131544
1273675647383,0.000131874
1273675707383,0.000131474
1273675767383,0.000131986
1273675827383,0.000130715
1273675887383,0.000131762
1273675947383,0.000131846
1273676007383,0.000130854
1273676067383,0.000132211
1273676127383,0.000131850
1273676187383,0.000132473
1273676247383,0.000131802
1273676307383,0.000132607
1273676367383,0.000132801
1273676427392,0.000131363
1273676487392,0.000131689
1273676547392,0.000132550
1273676607392,0.000133006
1273676667392,0.000131719
1273676727392,0.000132604
1273676787392,0.000132445
1273676847392,0.000133419
1273676907392,0.000132281
1273676967392,0.000133316
1273677027392,0.000132466
1273677087392,0.000132563
1273677147392,0.000133948
1273677207392,0.000132995
1273677267392,0.000133696
1273677327392,0.000133432
1273677387392,0.000133009
1273677447392,0.000133113
1273677507392,0.000132281
1273677567392,0.000132132
1273677627392,0.000133184
1273677687392,0.000133020
1273677747392,0.000131924